Wind_Speed
31 32 33 34 36 36 37 37 38 38 38 36 35 35 35 35 36 37 38 39 40 40 40 41 42 43 44 45 45 46 46 45 45 46 46 46 46 46 46 46 47 47 47 48
31 33 34 34 35 36 36 37 37 37 37 36 36 36 35 36 36 37 38 39 39 40 40 40 41 42 43 44 44 44 45 45 46 46 46 46 46 46 46 46 46 46 47 47
32 33 34 35 34 35 36 37 37 37 36 37 37 36 37 38 38 37 38 39 39 40 40 41 41 42 42 42 43 43 44 45 45 46 46 46 46 47 46 46 46 47 48 48
32 33 35 34 34 34 36 37 38 38 37 37 37 37 37 38 39 38 38 39 40 41 41 41 41 41 42 42 42 43 44 44 45 45 45 46 46 46 47 47 48 48 48 49
30 33 34 34 33 33 34 35 37 38 38 38 39 39 39 39 40 40 39 39 40 41 41 41 41 41 41 41 42 42 43 44 44 45 45 46 46 46 46 47 48 48 48 48
27 30 33 33 33 33 34 35 35 36 36 37 39 40 39 39 40 40 40 39 40 41 41 41 41 41 41 42 42 42 42 43 43 44 45 45 46 46 46 47 47 48 47 47
26 29 31 32 33 33 34 35 35 35 36 36 37 38 38 38 39 40 40 40 40 40 40 40 41 41 41 40 41 42 42 43 44 45 45 45 46 46 47 47 47 47 47 47
26 28 28 29 30 31 32 33 34 34 35 35 36 37 37 36 36 37 38 39 39 39 40 40 40 40 40 40 41 41 42 43 44 45 45 46 46 46 46 46 46 46 47 47
27 28 28 28 29 30 31 32 33 34 34 35 35 36 36 36 35 36 37 38 39 39 40 40 40 40 40 41 41 42 42 43 44 45 46 46 45 46 46 46 46 46 46 46
26 26 27 28 30 30 31 32 33 34 34 34 34 34 35 36 36 37 37 37 37 38 39 40 40 41 41 42 42 43 43 43 43 44 45 45 45 45 45 45 45 45 45 44
25 25 25 26 27 28 29 29 30 32 33 33 33 34 35 35 36 36 36 36 36 37 38 39 40 41 41 41 41 41 42 42 42 42 43 43 43 44 44 44 44 43 42 40
23 24 25 25 26 27 28 28 29 30 32 32 33 34 35 35 35 36 36 36 36 36 36 37 38 39 40 40 40 40 40 40 41 41 41 41 41 41 41 41 41 41 39 38
21 23 25 26 26 26 26 28 28 28 29 31 32 33 34 34 35 35 36 36 37 37 37 37 37 37 38 38 39 39 39 40 40 40 40 40 39 38 38 39 39 39 38 38
20 21 23 25 25 25 26 27 27 27 28 29 31 32 33 34 34 35 35 36 36 37 37 37 37 37 38 38 38 38 38 38 38 37 37 37 36 36 36 37 37 37 37 38
18 19 20 22 23 24 25 26 27 27 28 29 29 30 31 32 33 33 33 34 35 35 36 36 36 36 36 36 36 36 36 36 35 35 35 35 35 34 34 34 34 35 36 36
19 19 19 20 21 22 23 24 25 26 27 28 28 29 29 30 31 30 31 31 31 32 32 32 33 33 34 35 34 34 33 33 33 33 33 33 32 32 32 32 32 33 33 33
20 20 19 19 20 21 21 23 24 24 25 26 26 27 28 28 29 29 29 29 28 28 28 29 30 30 31 32 32 31 31 31 31 31 31 31 30 30 30 31 31 31 31 31
19 19 19 19 20 21 21 21 22 22 23 24 25 26 27 27 28 27 27 27 27 27 28 28 28 28 27 28 28 27 28 28 29 29 29 29 29 29 29 30 30 30 30 30
18 19 19 19 19 20 20 21 21 21 22 22 23 24 24 25 26 26 26 27 27 27 27 27 26 27 27 26 26 26 26 26 26 27 28 28 28 28 28 28 28 28 28 29
18 19 19 20 20 20 20 21 21 22 22 22 22 22 23 23 24 24 25 26 27 27 27 27 26 26 26 26 26 26 26 26 26 25 26 26 27 27 27 27 27 27 27 28
18 19 19 20 20 20 21 21 22 22 23 23 23 23 23 23 23 23 24 25 26 26 27 27 26 26 25 25 25 25 25 25 25 25 25 26 26 26 26 26 26 27 27 27
18 19 20 20 21 21 21 22 22 22 22 23 23 23 23 23 23 23 24 24 24 24 25 25 25 25 25 25 25 24 24 24 24 25 25 25 25 25 25 25 26 26 26 26
19 19 19 20 20 21 21 21 21 22 21 21 22 22 23 22 22 23 23 23 22 23 23 23 24 24 24 25 24 24 24 24 24 24 24 24 24 24 24 24 24 25 25 26
19 20 19 20 20 20 20 20 21 21 21 21 21 21 22 22 23 23 23 23 22 22 23 23 23 23 24 24 23 23 24 24 24 23 23 23 23 23 24 24 24 25 25 26
19 19 20 20 20 20 20 19 19 20 20 21 21 21 21 22 22 22 23 22 22 22 22 23 22 22 22 22 22 22 22 23 23 23 22 22 23 23 24 24 24 24 24 23
19 19 19 20 20 19 19 18 18 19 19 19 20 20 20 20 20 21 21 21 21 21 21 21 21 21 21 21 21 21 21 21 21 21 22 22 22 23 23 23 23 23 22 21
19 19 19 20 19 19 19 18 18 18 18 18 18 19 19 19 19 19 19 19 19 19 20 20 20 20 20 20 20 20 20 21 21 21 21 21 21 21 21 21 21 21 21 20
Wind_Direction
234 233 233 233 233 234 235 236 238 239 239 239 241 243 242 242 241 241 242 242 243 246 247 248 250 251 253 254 255 256 258 258 259 259 261 262 263 265 267 269 271 273 274 275
237 235 234 233 233 235 236 236 238 239 239 239 241 242 242 242 242 242 242 242 243 245 247 248 250 252 253 254 255 256 257 258 258 259 261 262 263 265 266 268 270 272 274 276
239 238 237 235 234 236 236 237 238 239 240 239 241 241 242 242 242 242 243 244 245 247 248 250 251 252 254 255 256 257 257 258 259 261 262 263 264 265 267 267 269 272 274 276
242 239 240 238 237 239 240 239 240 240 240 240 242 242 243 244 244 244 245 246 248 249 250 252 252 253 255 256 256 257 258 258 260 261 262 264 265 267 268 268 270 273 274 276
244 242 240 239 239 240 241 241 240 241 242 243 243 243 244 246 248 248 249 249 250 252 252 253 253 254 255 256 257 258 258 260 261 262 263 264 266 267 269 270 271 273 274 275
244 244 242 240 241 241 242 243 242 244 244 245 244 245 245 247 248 249 250 251 252 252 253 255 255 255 256 256 257 258 260 261 262 263 264 265 266 268 269 271 272 273 274 275
244 245 243 242 243 243 244 244 243 245 245 246 245 244 245 247 248 249 250 252 252 253 253 254 255 256 257 258 259 260 262 263 264 264 265 266 268 269 270 271 272 273 274 275
246 247 245 242 244 244 245 244 244 245 245 246 246 245 246 248 249 249 249 251 251 252 253 254 255 256 258 260 261 263 264 265 265 266 267 269 270 271 271 272 272 274 275 277
249 250 249 247 247 247 248 248 247 247 246 246 246 246 246 247 249 250 251 252 252 253 255 256 256 257 259 261 264 265 266 267 267 268 269 270 272 272 272 272 273 275 276 278
250 249 248 248 249 249 250 251 250 249 249 248 247 247 246 247 248 250 252 253 253 254 255 256 258 259 261 263 265 266 267 268 269 270 271 271 272 272 272 273 273 275 277 277
249 247 247 247 248 249 249 251 250 248 248 247 247 248 249 249 250 251 252 254 256 257 258 259 259 260 262 264 266 267 268 270 271 272 272 272 272 272 272 273 275 275 276 276
250 246 246 246 247 248 247 247 248 248 247 247 248 249 249 250 251 252 253 255 257 259 260 260 261 261 263 264 266 267 269 271 272 273 273 272 271 271 271 272 273 274 274 274
254 250 248 247 248 250 249 248 248 250 250 250 249 250 250 251 252 254 256 258 259 260 262 262 262 263 264 266 267 269 271 272 272 272 272 272 271 271 271 271 271 272 272 274
258 255 252 251 251 252 252 251 250 250 250 251 250 250 250 251 252 255 256 258 260 262 263 263 263 263 264 266 268 269 271 272 272 271 271 271 271 272 272 271 270 270 272 275
262 259 257 256 255 254 254 253 252 252 252 252 252 253 253 253 254 255 257 258 260 261 263 263 263 263 264 266 268 271 272 272 273 272 272 272 272 273 273 273 272 272 274 276
265 263 261 260 258 257 257 255 255 255 254 253 254 254 255 255 255 257 257 258 260 261 263 263 264 265 266 267 269 271 272 272 273 272 272 272 271 272 272 272 273 275 276 277
267 265 263 262 261 260 260 259 257 255 255 256 256 256 256 256 257 258 258 258 260 263 264 265 265 265 267 269 270 270 271 272 273 272 272 272 272 272 272 273 275 277 278 279
267 264 264 264 263 262 262 262 260 258 258 259 259 259 258 257 257 257 258 258 260 263 265 267 267 267 269 270 271 272 273 274 274 273 272 272 273 273 274 274 275 276 277 279
266 265 264 263 263 263 263 263 262 261 261 262 261 259 259 258 256 257 258 259 261 263 264 265 266 268 269 270 272 273 274 274 274 273 273 272 272 272 273 274 275 275 277 278
268 266 264 264 264 264 264 262 261 261 261 261 261 261 260 258 257 258 260 260 261 263 265 266 267 268 269 271 272 273 274 274 274 274 273 272 273 273 274 274 275 277 277 279
271 268 266 263 262 263 263 262 261 260 260 261 263 262 260 259 258 259 260 261 262 265 266 267 268 269 271 272 272 273 274 274 274 274 274 274 274 274 274 275 276 278 278 279
271 269 267 263 262 263 265 264 262 262 262 261 261 260 260 260 258 259 260 261 264 267 268 269 269 270 270 271 272 273 274 274 274 274 275 275 274 274 275 276 278 279 280 281
271 269 267 264 263 264 266 265 264 263 262 262 262 261 260 259 258 260 262 263 265 268 269 269 269 270 270 271 271 272 273 274 274 275 275 275 275 275 275 278 279 280 282 283
271 268 266 267 267 268 268 267 264 262 262 263 263 263 262 260 259 261 263 263 265 268 269 270 269 269 269 270 270 271 272 273 273 273 273 274 274 275 276 278 281 282 283 284
273 270 268 269 270 271 269 267 266 264 264 264 265 265 263 261 261 262 263 263 265 267 269 270 270 271 270 270 271 272 272 272 272 272 273 275 276 276 277 279 280 282 283 284
273 271 270 269 271 271 268 267 268 268 267 265 265 265 264 263 263 263 263 264 265 267 268 270 272 272 271 271 271 271 272 272 272 274 276 277 278 278 278 278 280 282 282 283
274 272 271 270 269 267 266 266 268 269 268 267 267 267 265 264 264 264 264 265 266 267 269 271 273 273 272 273 273 273 273 273 273 275 278 279 280 280 280 280 280 281 281 282
Height
5558 5562 5565 5569 5574 5578 5581 5585 5590 5595 5600 5606 5608 5611 5615 5618 5622 5626 5629 5633 5636 5639 5642 5644 5647 5649 5651 5652 5654 5655 5657 5658 5659 5660 5660 5661 5662 5662 5662 5662 5662 5661 5660 5659
5552 5555 5558 5562 5567 5571 5574 5578 5582 5587 5592 5597 5599 5603 5606 5610 5613 5617 5620 5623 5627 5629 5632 5634 5637 5639 5640 5642 5643 5644 5646 5647 5648 5649 5649 5650 5650 5651 5651 5651 5651 5650 5649 5647
5545 5548 5551 5556 5561 5564 5568 5571 5575 5579 5585 5588 5591 5594 5598 5601 5604 5608 5611 5614 5617 5620 5622 5624 5626 5628 5630 5631 5632 5633 5635 5636 5637 5637 5638 5639 5639 5639 5639 5639 5639 5638 5637 5635
5538 5542 5545 5552 5554 5557 5560 5564 5567 5571 5575 5579 5582 5586 5589 5592 5595 5599 5602 5605 5608 5610 5613 5615 5616 5618 5619 5621 5621 5622 5623 5624 5625 5626 5627 5627 5627 5628 5628 5627 5627 5626 5625 5623
5532 5534 5538 5544 5547 5550 5553 5557 5560 5563 5566 5570 5573 5577 5580 5583 5586 5589 5592 5595 5598 5600 5602 5604 5606 5608 5609 5610 5611 5612 5613 5613 5614 5615 5615 5616 5616 5616 5616 5615 5615 5614 5612 5611
5525 5528 5531 5537 5540 5542 5546 5549 5552 5554 5557 5561 5564 5568 5572 5574 5577 5580 5582 5585 5588 5590 5592 5594 5596 5597 5598 5600 5601 5602 5602 5603 5603 5604 5604 5604 5604 5604 5604 5603 5602 5601 5600 5599
5519 5521 5524 5530 5532 5535 5539 5542 5544 5546 5549 5552 5555 5559 5562 5564 5567 5570 5573 5575 5577 5580 5582 5584 5585 5587 5588 5589 5590 5591 5592 5592 5592 5592 5592 5592 5592 5592 5592 5591 5590 5589 5588 5587
5513 5515 5521 5522 5525 5528 5530 5532 5535 5537 5540 5543 5546 5549 5552 5555 5557 5560 5563 5565 5567 5570 5572 5573 5575 5576 5578 5579 5580 5580 5581 5581 5581 5581 5580 5580 5580 5580 5579 5579 5578 5577 5576 5575
5508 5511 5513 5515 5517 5519 5521 5524 5526 5529 5532 5534 5537 5540 5543 5546 5548 5550 5553 5555 5557 5559 5561 5563 5564 5566 5567 5568 5568 5569 5569 5569 5569 5568 5568 5568 5568 5568 5567 5566 5566 5565 5564 5563
5501 5503 5505 5507 5509 5511 5513 5515 5518 5520 5523 5526 5529 5531 5534 5537 5539 5541 5543 5545 5547 5549 5551 5552 5553 5554 5556 5557 5557 5558 5558 5557 5557 5556 5556 5555 5555 5554 5554 5554 5553 5553 5552 5550
5494 5497 5498 5500 5501 5503 5506 5508 5510 5512 5515 5517 5520 5523 5525 5527 5530 5532 5533 5535 5537 5539 5540 5541 5543 5544 5544 5545 5546 5546 5546 5546 5545 5544 5544 5543 5543 5542 5542 5542 5541 5540 5540 5538
5488 5490 5492 5493 5495 5496 5498 5500 5502 5504 5507 5509 5511 5514 5516 5518 5520 5522 5524 5526 5527 5529 5530 5531 5532 5533 5534 5534 5534 5535 5535 5534 5534 5533 5532 5532 5531 5531 5530 5530 5529 5528 5528 5527
5482 5483 5485 5486 5488 5490 5491 5493 5495 5497 5499 5501 5503 5505 5507 5509 5511 5513 5514 5516 5518 5519 5520 5521 5521 5522 5523 5523 5523 5523 5523 5523 5522 5522 5521 5521 5520 5520 5519 5519 5518 5518 5517 5516
5476 5477 5478 5480 5482 5483 5485 5486 5488 5490 5491 5493 5495 5497 5499 5500 5502 5503 5505 5506 5508 5509 5509 5510 5511 5512 5512 5513 5513 5513 5512 5512 5511 5511 5510 5510 5509 5509 5508 5508 5508 5507 5506 5505
5471 5472 5473 5474 5475 5477 5478 5479 5481 5482 5484 5485 5487 5488 5490 5492 5493 5494 5495 5497 5498 5499 5499 5500 5501 5501 5502 5502 5502 5502 5502 5501 5501 5500 5500 5500 5499 5499 5498 5498 5497 5497 5496 5495
5466 5466 5467 5468 5469 5470 5471 5472 5473 5474 5476 5477 5478 5480 5481 5483 5484 5485 5486 5487 5488 5489 5490 5490 5491 5491 5492 5492 5492 5492 5492 5491 5491 5491 5490 5490 5490 5489 5489 5488 5487 5487 5486 5485
5460 5461 5461 5462 5463 5464 5464 5465 5466 5467 5468 5469 5470 5471 5473 5474 5475 5477 5478 5479 5480 5481 5481 5481 5482 5482 5482 5483 5483 5482 5482 5482 5481 5481 5481 5481 5480 5480 5479 5479 5478 5478 5477 5476
5454 5455 5455 5456 5457 5458 5458 5459 5459 5460 5461 5462 5462 5463 5464 5466 5467 5468 5469 5470 5472 5473 5473 5473 5474 5474 5474 5474 5474 5473 5473 5473 5472 5472 5472 5472 5471 5471 5471 5470 5470 5469 5468 5467
5449 5449 5450 5450 5451 5451 5452 5453 5453 5454 5454 5455 5455 5456 5457 5457 5459 5460 5461 5462 5464 5464 5465 5465 5466 5466 5466 5466 5466 5465 5465 5465 5464 5464 5463 5463 5463 5462 5462 5461 5461 5460 5459 5458
5443 5444 5444 5444 5445 5445 5446 5446 5447 5447 5448 5448 5448 5449 5449 5450 5451 5452 5453 5454 5455 5456 5457 5457 5458 5458 5458 5458 5458 5457 5457 5457 5456 5456 5455 5455 5454 5454 5453 5453 5452 5451 5450 5449
5438 5438 5438 5438 5439 5439 5440 5440 5440 5441 5441 5441 5441 5441 5442 5443 5444 5445 5446 5447 5447 5448 5449 5449 5450 5450 5450 5450 5450 5449 5449 5449 5448 5448 5448 5447 5446 5446 5445 5445 5444 5443 5442 5441
5432 5432 5432 5432 5433 5433 5433 5433 5433 5433 5433 5433 5434 5434 5435 5436 5437 5438 5438 5439 5440 5440 5441 5441 5441 5442 5442 5442 5442 5442 5441 5441 5440 5440 5440 5439 5438 5438 5437 5436 5436 5435 5434 5433
5427 5426 5426 5426 5427 5427 5426 5426 5426 5426 5426 5427 5427 5427 5428 5429 5430 5431 5432 5432 5433 5433 5433 5433 5434 5434 5434 5434 5434 5434 5433 5433 5433 5432 5432 5431 5431 5430 5430 5429 5428 5427 5426 5425
5420 5420 5420 5420 5420 5420 5420 5419 5419 5419 5420 5420 5420 5420 5421 5422 5423 5423 5424 5425 5425 5426 5426 5426 5426 5426 5426 5426 5426 5426 5426 5425 5425 5425 5424 5424 5423 5422 5422 5421 5420 5419 5418 5416
5415 5414 5414 5414 5414 5414 5413 5413 5413 5413 5413 5414 5414 5414 5414 5415 5416 5416 5417 5417 5418 5418 5419 5419 5419 5419 5419 5419 5418 5418 5418 5418 5417 5417 5417 5416 5415 5415 5414 5413 5412 5411 5410 5408
5409 5408 5408 5408 5408 5407 5407 5407 5407 5407 5407 5407 5407 5408 5408 5408 5409 5410 5410 5410 5411 5411 5411 5411 5411 5411 5411 5411 5411 5411 5411 5410 5410 5410 5409 5409 5408 5407 5406 5405 5404 5403 5402 5401
5402 5402 5402 5401 5401 5401 5401 5401 5401 5401 5401 5401 5402 5402 5402 5403 5403 5404 5404 5404 5404 5404 5405 5405 5405 5405 5405 5404 5404 5404 5404 5404 5403 5403 5402 5402 5401 5400 5399 5398 5397 5396 5395 5395